Location: ????????
(55.3716°N, 37.8801°E)
Time: 15:11:52
(UTC+00:00)

Daily predictions for brighter satellites

Satellite Brightness Start Highest point End
(mag) Time Altitude Azimuth Time Altitude Azimuth Time Altitude Azimuth
ATLAS 2AS CENTAUR R/B 3.2 18:54:57 10° NW 19:02:47 74° NNE 19:09:59 10° ESE
Cosmos 2333 Rocket 2.6 19:02:21 10° S 19:07:45 46° ESE 19:13:12 10° NE
Cosmos 1315 Rocket 3.0 19:09:40 10° NNW 19:13:47 80° WSW 19:17:54 10° S
Cosmos-2242 4.4 19:11:55 10° NNW 19:15:55 36° W 19:19:55 10° SSW
Cosmos 1818 3.6 19:10:57 10° SW 19:16:23 80° SE 19:21:53 10° NE
Resurs 01 Rocket 4.1 19:13:39 10° SW 19:16:35 17° W 19:19:32 10° NW
USA 215 3.7 19:11:29 10° ENE 19:17:38 41° SE 19:23:44 10° SSW
SL-16 R/B 3.5 19:13:37 10° WSW 19:19:05 46° NW 19:24:35 10° NNE
Cosmos 773 Rocket 4.0 19:14:23 10° SSW 19:19:40 73° ESE 19:24:58 10° NNE
GEOS 3 Rocket 3.7 19:14:54 10° NE 19:20:18 67° SE 19:25:41 10° SW
Cosmos 2221 2.6 19:16:39 10° N 19:21:04 72° ENE 19:25:25 10° SSE
ERS-1 Rocket 3.7 19:18:16 10° S 19:23:11 52° W 19:28:08 10° NNW
Cosmos 2278 Rocket 2.3 19:19:47 10° NW 19:25:31 87° WSW 19:31:12 10° SSE
Cosmos 1844 Rocket 4.4 19:25:30 10° NW 19:29:57 25° WSW 19:34:23 10° SSW
ATLAS 5 CENTAUR R/B 1.6 19:27:42 10° SW 19:32:00 82° SE 19:36:58 10° NE
Meteor 1-11 4.4 19:26:24 10° SSW 19:32:03 82° WNW 19:37:49 10° NNE
Cosmos 1943 Rocket 3.7 19:28:39 10° NNW 19:33:42 31° NE 19:38:44 10° E
Cosmos 1892 3.5 19:32:04 10° SSE 19:35:29 35° E 19:38:59 10° NNE
Nadezhda 3 Rocket 4.3 19:31:52 10° N 19:38:14 66° ENE 19:44:27 10° SSE
SL-16 R/B 4.1 19:38:00 10° ESE 19:40:39 14° E 19:43:18 10° ENE
SPOT 5 3.9 19:35:59 10° S 19:40:43 42° W 19:45:16 10° NNW
Cosmos 2056 Rocket 4.0 19:36:29 10° NNW 19:41:50 59° ENE 19:47:13 10° SE
Aureole 2 Rocket 3.6 19:39:43 10° N 19:42:08 25° NE 19:44:36 10° ESE
Cosmos 2154 Rocket 4.4 19:38:26 10° SSE 19:44:21 49° E 19:50:19 10° NNE
Spot 4 4.2 19:40:52 10° SE 19:45:30 57° ENE 19:50:12 10° N
Lacrosse 5 rocket 1.6 19:41:41 10° W 19:45:53 69° N 19:49:49 10° E
USA 81 4.5 19:41:17 10° SSW 19:46:32 65° W 19:51:49 10° N
ATLAS 5 CENTAUR R/B 3.2 19:46:07 10° WNW 19:48:00 25° N 19:49:56 10° NE
Cosmos 2074 Rocket 4.0 19:45:30 10° S 19:51:42 79° E 19:57:57 10° NNE
TSX-5 4.1 19:48:35 10° NW 19:51:52 48° WSW 19:55:16 12° SSE
Cosmos 2058 3.2 19:48:49 11° S 19:52:44 53° E 19:56:47 10° NNE
USA 267 3.6 19:46:55 10° SE 19:53:17 51° SW 19:59:40 10° WNW
In-Cosmos 22 Rocket 4.2 19:48:24 10° S 19:53:36 61° E 19:58:52 10° NNE
Cosmos 1408 3.3 19:54:48 13° SSE 19:57:37 36° E 20:00:56 10° NNE
CZ-4C R/B 3.6 19:52:20 10° NW 19:58:35 52° NNE 20:06:04 10° E
Cosmos 1680 Rocket 4.1 19:55:25 10° S 20:00:20 42° ESE 20:05:21 10° NE
Cosmos 1076 Rocket 3.6 19:59:22 11° S 20:03:22 61° E 20:07:36 10° NNE
COSMOS 2455 3.6 19:58:28 10° NW 20:04:25 53° NE 20:10:20 10° ESE
Cosmos 2322 Rocket 4.2 20:01:44 10° W 20:06:45 32° NW 20:11:47 10° NNE
Cosmos 1452 Rocket 4.5 20:03:46 10° NNW 20:08:48 42° NE 20:13:47 10° ESE
JB-3 4.4 20:06:03 10° NNE 20:09:56 79° WNW 20:13:46 10° SSW
BREEZE-M DEB (TANK) 4.2 20:08:08 14° SSE 20:10:13 18° ESE 20:15:29 10° E
Cosmos 2344 4.1 20:06:36 10° S 20:13:19 38° ESE 20:20:37 10° NE
Cosmos 2327 Rocket 4.5 20:07:42 10° S 20:13:54 80° E 20:20:03 10° NNE
Cosmos 2151 3.8 20:10:45 14° SSE 20:14:04 38° E 20:18:02 10° NNE
Helios 1A 4.4 20:12:00 10° ESE 20:15:38 30° ENE 20:19:20 10° N
MTI 4.3 20:14:09 10° N 20:17:11 53° WNW 20:20:11 10° SSW
Cosmos 923 Rocket 4.1 20:12:33 10° SSW 20:17:46 68° ESE 20:23:03 10° NNE
Cosmos 2369 Rocket 3.4 20:12:42 10° NNW 20:17:58 39° NE 20:23:12 10° ESE
ATLAS CENTAUR R/B 3.4 20:17:59 10° W 20:19:48 13° WSW 20:21:36 10° SW
Cosmos 1980 3.8 20:15:35 10° SSW 20:21:06 58° ESE 20:26:39 10° NE
Cosmos 1151 Rocket 3.7 20:18:33 10° N 20:22:46 47° ENE 20:26:23 13° SE
Cosmos 1933 4.1 20:19:25 10° N 20:23:16 42° ENE 20:26:35 13° SE
APEX 3.6 20:20:40 10° NNW 20:23:19 37° NE 20:25:52 10° ESE
ALOS 2 2.8 20:20:39 14° SSE 20:24:24 65° ENE 20:28:47 10° N
NOSS 3-4 (A) 4.1 20:19:07 10° NW 20:25:47 55° SW 20:32:22 13° SSE
COSMOS 2428 3.0 20:20:13 10° SW 20:25:53 73° NW 20:31:37 10° NNE
NOSS 3-4 (C) 4.1 20:19:13 10° NW 20:25:54 56° SW 20:32:30 13° SSE
Cosmos 1825 2.5 20:23:21 16° S 20:26:14 51° E 20:29:56 10° NNE
Cosmos 1340 4.4 20:24:54 12° SE 20:27:17 20° E 20:30:04 10° NE
Cosmos 1295 Rocket 4.5 20:22:00 12° S 20:27:46 75° E 20:33:52 10° NNE
Cosmos 371 Rocket 3.6 20:23:49 10° NNW 20:28:42 65° ENE 20:33:08 12° SE
GP-B 3.7 20:26:10 10° N 20:30:29 47° E 20:33:57 15° SSE
NOSS 0 Rocket 3.9 20:25:09 10° SSW 20:31:18 74° ESE 20:37:29 10° NE
Cosmos 1624 Rocket 4.2 20:27:08 10° NNW 20:32:22 67° WSW 20:36:39 15° SSE
Terra 3.8 20:33:17 10° SW 20:36:49 20° W 20:40:22 10° NW
NOSS 3-3 (A) 4.1 20:32:50 10° SW 20:38:56 88° NW 20:45:58 10° NE
NOSS 3-3 (C) 4.1 20:32:56 10° SW 20:39:03 89° NNW 20:46:05 10° NE
Cosmos 2237 Rocket 2.2 20:33:42 10° SSW 20:39:22 71° ESE 20:45:05 10° NE
Cosmos 2219 Rocket 2.9 20:36:36 10° SW 20:42:06 55° NW 20:47:40 10° NNE
Cosmos 1782 4.1 20:40:59 10° N 20:44:37 33° ENE 20:47:59 11° SE
Cosmos 2360 Rocket 4.2 20:39:40 10° W 20:44:41 31° NW 20:49:44 10° NNE
Genesis I 3.6 20:43:46 14° SSW 20:46:55 44° SE 20:50:39 10° ENE
Thor Agena Rocket 3.6 20:42:40 10° NNE 20:47:51 86° WNW 20:52:43 11° SSW
CREW DRAGON DEMO-1 DEB 4.4 20:50:58 18° SE 20:50:58 18° SE 20:52:52 10° ESE
SL-4 R/B 0.8 20:50:50 25° SE 20:51:46 51° ENE 20:53:49 10° N
Cosmos 2333 Rocket 3.2 20:46:32 10° WSW 20:52:03 48° NW 20:57:39 10° NNE
ATLAS 2AS CENTAUR R/B 3.4 20:46:22 10° NW 20:53:30 44° WSW 20:59:01 15° S
Cosmos 1346 Rocket 4.3 20:52:34 14° SE 20:55:07 25° E 20:58:22 10° NE
USA 215 3.2 20:54:35 10° ENE 21:01:12 82° SSE 21:07:47 10° WSW
RESURS DK-1 3.5 20:58:29 10° NNW 21:02:28 42° NE 21:06:25 10° ESE
Cosmos 1515 Rocket 3.8 20:58:21 10° N 21:02:42 65° ENE 21:06:08 16° SSE
EO 1 Del DPAF 3.8 21:02:51 10° N 21:06:34 55° WNW 21:09:59 12° SW
Cosmos 2278 Rocket 3.9 21:04:49 10° NW 21:08:52 20° W 21:12:54 10° SSW
Cosmos 1328 Rocket 3.6 21:05:52 10° NNW 21:10:11 72° W 21:13:23 18° S
Cosmos 1766 Rocket 3.5 21:07:16 17° S 21:10:40 84° E 21:15:07 10° NNE
Cosmos 2297 4.1 21:05:17 10° NW 21:10:53 53° WSW 21:15:17 16° S
Cosmos 1892 4.5 21:07:58 10° SW 21:11:15 27° WNW 21:14:34 10° N
Cosmos 2218 Rocket 4.1 21:06:07 15° S 21:11:27 73° E 21:17:44 10° NNE
Okean 3 Rocket 3.6 21:09:40 16° SSW 21:13:17 83° WNW 21:17:44 10° N
Cosmos 2112 Rocket 4.3 21:08:32 10° SW 21:13:53 73° WNW 21:19:17 10° NNE
Cosmos 1606 3.3 21:10:49 10° NNW 21:14:35 49° W 21:17:19 17° SSW
Cosmos 304 Rocket 3.9 21:10:28 10° NNW 21:15:20 80° ENE 21:19:36 13° SSE
Aureole 2 Rocket 3.4 21:13:19 10° NW 21:15:41 24° WSW 21:17:00 18° SSW
Cosmos 1420 Rocket 4.3 21:11:11 10° NNW 21:16:20 55° WSW 21:20:22 17° S
ATLAS 5 CENTAUR R/B 3.3 21:12:47 10° W 21:17:05 40° NNW 21:22:04 10° NE
Cosmos 2366 rocket 4.1 21:11:55 15° S 21:17:14 76° E 21:23:35 10° NNE
Cosmos 2228 Rocket 3.7 21:13:27 10° N 21:18:00 55° ENE 21:21:51 14° SSE
Cosmos 1943 Rocket 2.2 21:12:22 10° NW 21:18:06 83° WSW 21:23:11 13° SSE
Cosmos 158 Rocket 4.3 21:13:46 10° SW 21:18:37 62° WNW 21:23:32 10° NNE
SL-16 R/B 2.3 21:18:55 15° SSW 21:23:39 62° ESE 21:29:17 10° NE
Lacrosse 5 rocket 1.1 21:21:03 10° WNW 21:25:07 72° SSW 21:28:56 10° ESE
Landsat 4 4.4 21:22:53 10° NNE 21:26:31 42° E 21:29:00 18° SSE
Cosmos 1959 Rocket 4.5 21:21:45 15° S 21:26:55 87° E 21:33:11 10° NNE
Cosmos 1633 3.1 21:27:04 19° SSE 21:29:26 48° E 21:32:56 10° NNE
Cosmos 1408 4.5 21:29:48 10° WSW 21:32:45 24° WNW 21:35:44 10° N
Cosmos 2341 Rocket 4.4 21:26:54 11° SSW 21:32:46 60° WNW 21:38:56 10° N
YAOGAN 11 4.2 21:31:33 18° S 21:34:48 70° WSW 21:39:16 10° NNW
Cosmos 1331 Rocket 4.2 21:32:46 10° NNW 21:38:07 73° ENE 21:43:25 10° SE
Cosmos 1743 Rocket 3.9 21:35:28 17° S 21:38:36 55° E 21:42:52 10° NNE
Cosmos 332 Rocket 4.1 21:34:41 10° NW 21:39:20 51° WSW 21:42:48 17° S
Meteor 2-3 Rocket 3.8 21:38:45 16° SSW 21:43:25 89° ESE 21:49:11 10° NNE
CZ-4C R/B 2.9 21:40:53 10° NW 21:47:44 81° SW 21:55:48 10° SE
Meteor 1-10 Rocket 4.4 21:42:38 10° NNW 21:48:16 71° ENE 21:53:22 12° SSE
COSMOS 2455 3.2 21:44:36 10° NW 21:50:24 50° WSW 21:55:18 14° S
Cosmos 1452 Rocket 4.1 21:46:01 10° NW 21:51:00 44° WSW 21:54:48 16° S
Meteor 2-6 Rocket 4.2 21:45:26 10° NNW 21:51:00 85° ENE 21:55:42 14° SSE
Helios 1A 3.7 21:48:16 17° SSW 21:51:07 41° W 21:55:06 10° NNW
Cosmos 2151 4.4 21:47:36 10° SW 21:51:26 31° WNW 21:55:17 10° N
SL-8 Rocket 4.4 21:46:21 12° SSW 21:51:59 58° WNW 21:58:06 10° N
Cosmos 405 3.3 21:49:35 10° NNW 21:53:03 53° W 21:55:20 19° S
Meteor 1-29 4.4 21:50:20 10° NE 21:53:17 27° E 21:55:32 14° SSE
SL-16 R/B 3.6 21:48:54 10° SE 21:54:45 45° ENE 22:00:39 10° N
Cosmos 1110 Rocket 4.0 21:49:53 10° NNW 21:55:11 82° WSW 22:00:04 12° SSE
PSLV R/B 3.8 21:51:29 10° NNE 21:55:39 58° ESE 21:58:47 17° S
Cosmos 1727 Rocket 4.3 21:52:11 10° NNW 21:58:15 56° W 22:03:21 15° SSW
Cosmos 389 Rocket 3.7 21:56:28 10° N 21:59:47 37° ENE 22:03:03 10° SE
ALOS 2 4.4 21:58:03 11° SW 22:01:10 20° W 22:04:28 10° NW
Cosmos 1825 4.3 21:59:11 10° WSW 22:02:03 20° WNW 22:04:56 10° NNW
Cosmos 2369 Rocket 2.3 21:56:46 10° NW 22:02:17 59° WSW 22:07:04 14° SSE
Cosmos 1408 Rocket 4.0 21:58:51 15° SSW 22:02:24 54° WNW 22:06:47 10° N
Resurs 1-4 Rocket 4.0 21:58:29 10° NE 22:02:31 21° E 22:06:31 10° SE
Cosmos 1340 3.3 21:59:38 15° SW 22:02:36 48° WNW 22:06:17 10° N
APEX 4.3 22:02:42 10° WNW 22:04:29 16° WSW 22:05:07 15° SW
SeaSat 1 4.1 22:04:05 10° NE 22:07:53 22° ESE 22:11:34 10° SSE
Cosmos 44 3.1 22:05:16 10° SW 22:09:37 85° NW 22:14:11 10° NE
Cosmos 1500 Rocket 3.6 22:07:42 17° SSW 22:11:07 81° WNW 22:15:32 10° N
Cosmos 1934 Rocket 4.4 22:10:15 13° SSE 22:15:39 57° E 22:21:47 10° NNE
Helios 1B rocket 2.5 22:11:46 10° NNE 22:15:56 74° ESE 22:19:04 17° S
Cosmos 1302 Rocket 4.1 22:11:19 10° NNW 22:16:34 79° ENE 22:21:47 10° SSE
ISS -1.4 22:18:05 10° SE 22:18:16 10° SE 22:18:40 10° SE
Cosmos 1656 Rocket 3.6 22:13:26 10° NW 22:18:52 77° WSW 22:24:17 10° SSE
Meteor 1-27 Rocket 3.8 22:13:22 10° NNW 22:18:58 77° ENE 22:24:38 10° SSE
Cosmos 1782 3.9 22:17:23 10° NNW 22:20:55 31° W 22:23:34 15° SSW
Cosmos 2237 Rocket 3.7 22:18:43 10° WSW 22:23:55 35° NW 22:29:09 10° NNE
Genesis I 4.4 22:20:50 10° WSW 22:24:34 42° NNW 22:28:18 10° NE
CREW DRAGON DEMO-1 DEB 3.3 22:23:02 10° WSW 22:25:55 38° S 22:28:48 10° ESE
Cosmos 2344 3.9 22:19:32 10° WSW 22:27:02 76° NNW 22:35:58 10° NE
Cosmos 1812 2.7 22:23:28 10° NNW 22:27:20 71° W 22:30:21 16° S
Cosmos 1805 Rocket 3.6 22:24:41 16° S 22:28:08 79° E 22:32:30 10° NNE
Cosmos 2263 4.5 22:22:59 10° NW 22:28:33 52° WSW 22:33:45 12° S
MOZ.5/SAFIR/RUBIN 5/SL-8 4.1 22:23:58 10° SSE 22:28:41 71° ENE 22:33:27 10° NNW
Cosmos 1346 Rocket 3.7 22:28:04 13° SW 22:31:19 41° WNW 22:35:05 10° N
CZ-2D R/B 3.4 22:27:33 10° NNE 22:32:19 33° E 22:37:06 10° SSE
UNK 4.2 22:30:58 10° SSE 22:35:29 61° ENE 22:40:04 10° N
SWARM C 4.5 22:32:13 10° N 22:35:36 89° SW 22:38:11 16° S
SWARM A 4.2 22:32:18 10° N 22:35:40 81° W 22:38:12 16° S
CZ-4C R/B 3.7 22:34:42 10° SSE 22:38:40 61° ENE 22:42:27 10° N
RESURS DK-1 3.2 22:36:40 10° NW 22:40:27 34° WSW 22:43:23 15° S
CZ-4 R/B 4.1 22:35:50 10° N 22:40:28 63° WNW 22:44:35 13° SSW
USA 215 3.5 22:37:42 10° E 22:44:17 78° N 22:50:51 10° W
USA 32 4.1 22:43:50 14° SSW 22:48:26 79° W 22:53:44 10° N
Spot 1 4.5 22:45:19 11° S 22:50:03 65° WSW 22:54:53 10° NNW
Cosmos 1707 Rocket 3.8 22:46:28 10° NNW 22:50:53 58° W 22:54:45 13° S
Lacrosse 5 4.1 22:50:48 10° SE 22:52:10 11° ESE 22:53:32 10° ESE
Gbstr 26 Del rocket 3.4 22:49:28 10° SW 22:53:07 41° SSE 22:57:26 10° E
Cosmos 44 Rocket 3.6 22:51:44 14° SSW 22:55:36 50° SE 23:00:14 10° NE
Cosmos 1441 Rocket 3.6 22:52:40 13° S 22:56:07 63° ESE 23:00:05 10° NNE
Cosmos 1943 Rocket 3.8 22:57:11 10° WNW 23:01:03 19° W 23:04:40 11° SW
Cosmos 1943 3.3 22:56:06 13° SSW 23:01:17 79° ESE 23:06:58 10° NE
Cosmos 1862 3.9 22:58:33 13° SSW 23:01:54 48° WNW 23:05:48 10° N
ATLAS 5 CENTAUR R/B 3.8 22:58:15 10° WNW 23:02:48 36° N 23:08:04 10° ENE
Cosmos 1470 Rocket 4.4 22:59:08 10° SSE 23:03:26 48° E 23:07:46 10° NNE
Lacrosse 5 rocket 2.5 23:00:44 10° W 23:03:43 21° SW 23:06:17 11° S
Cosmos 972 Rocket 4.4 22:57:26 10° NNW 23:04:00 76° WSW 23:09:46 10° SSE
Cosmos 494 Rocket 4.1 23:00:18 12° SSW 23:05:08 76° WNW 23:10:19 10° NNE
SL-16 R/B 3.4 23:02:49 10° WSW 23:08:08 38° NW 23:13:27 10° NNE
IKONOS-2 4.5 23:04:31 10° SSE 23:08:47 85° WSW 23:13:04 10° NNW
DELTA 2 DEB (DPAF) 4.4 23:04:45 11° S 23:08:54 52° W 23:13:17 10° NNW
Cosmos 2123 Rocket 4.4 23:03:51 10° NNW 23:09:47 48° W 23:15:28 11° SSW
Cosmos 1862 Rocket 3.6 23:07:03 10° NNW 23:11:28 70° W 23:15:53 10° S
Meteor 1-4 Rocket 2.6 23:11:18 10° NNW 23:15:06 90° W 23:18:50 10° SSE
Cosmos 1633 Rocket 3.1 23:11:22 12° SSW 23:15:26 84° WNW 23:19:54 10° N
BREEZE-M DEB (TANK) 4.4 23:11:12 10° SW 23:16:07 23° S 23:18:53 10° SE
SL-24 DEB 4.3 23:13:58 10° N 23:18:40 77° W 23:23:20 10° SSW
Sich 1 3.6 23:15:28 12° SSW 23:19:22 48° WNW 23:23:36 10° N
NOSS 2-1 (C) 4.1 23:16:11 10° NW 23:20:45 85° NE 23:27:09 10° SE
NOSS 2-1 (D) 4.1 23:20:50 10° NW 23:25:28 89° NE 23:31:57 10° SE
Meteor 1-29 4.2 23:23:01 10° N 23:26:01 30° WNW 23:29:01 10° SW
Okean 1 3.4 23:23:18 10° N 23:27:18 79° ENE 23:31:17 10° SSE
Cosmos 405 Rocket 4.4 23:26:08 10° SSE 23:29:29 28° E 23:32:48 10° NNE
CZ-4B R/B 4.0 23:26:20 10° NNE 23:31:29 58° ESE 23:36:28 10° S
Okean 1-7 3.3 23:29:29 10° N 23:33:55 72° ENE 23:38:19 10° SSE
Cosmos 389 Rocket 4.0 23:31:31 10° NW 23:34:20 22° W 23:37:05 10° SW
Iridium 4 Rocket 4.0 23:28:54 10° SSW 23:34:44 62° W 23:40:17 10° N
SL-4 R/B 1.7 23:32:31 11° SSW 23:35:07 44° SE 23:37:51 10° NE
CZ-4C R/B 3.8 23:29:48 10° WNW 23:35:50 29° WSW 23:42:33 10° S
Cosmos 1459 Rocket 4.5 23:32:14 10° S 23:38:08 59° E 23:44:10 10° NNE
SL-16 R/B 2.9 23:32:21 10° S 23:38:21 49° W 23:44:27 10° NNW
Cosmos 1992 Rocket 4.1 23:33:24 10° NNW 23:38:35 61° WSW 23:43:44 10° S
Cosmos 1605 Rocket 4.3 23:34:41 10° SSW 23:41:00 64° WNW 23:47:16 10° N
Cosmos 1603 4.3 23:37:09 10° SW 23:42:45 55° NW 23:48:24 10° NNE
Resurs 1-4 Rocket 2.2 23:37:37 10° NNE 23:42:59 81° WNW 23:48:19 10° SSW
Cosmos 2369 Rocket 4.1 23:42:55 10° WNW 23:45:09 12° W 23:47:23 10° WSW
Cosmos 1269 Rocket 4.4 23:40:18 10° SW 23:45:32 60° WNW 23:50:48 10° NNE
SeaSat 1 2.5 23:41:00 10° NNE 23:45:58 85° NW 23:50:55 10° SW
Cosmos 1933 Rocket 3.6 23:43:47 10° S 23:48:08 86° E 23:52:30 10° NNE
Cosmos 1666 Rocket 4.4 23:44:30 10° SW 23:48:39 38° WNW 23:52:47 10° N
Helios 1B rocket 4.5 23:47:49 10° N 23:50:45 19° NW 23:53:40 10° W
Cosmos 1607 4.1 23:45:53 10° SSW 23:52:04 71° SE 23:58:24 10° NE
Cosmos 1703 Rocket 3.6 23:48:30 10° NNW 23:53:00 72° W 23:57:27 10° S
ISS -2.7 23:51:20 10° SW 23:54:18 29° SSE 23:57:16 10° E
ADEOS II 2.6 23:49:13 10° NNE 23:54:26 60° ESE 23:59:38 10° S
